Tracking 30260 objects as of 14-Feb-2025
HD Live streaming from Space Station
objects crossing your sky now

NOAA 17 DEB

Track NOAA 17 DEB now!
10-day predictions


NORAD ID: 48729
Int'l Code: 2002-032BP
Perigee: 711.9 km
Apogee: 732.3 km
Inclination: 98.5 °
Period: 99.1 minutes
Semi major axis: 7093 km
RCS: Unknown
Launch date: June 24, 2002
Source: United States (US)
Launch site: AIR FORCE WESTERN TEST RANGE (AFWTR)

Note: This is SATELLITE DEBRIS
Your satellite tracking list
Your tracking list is empty




NASA's NSSDC Master Catalog

Two Line Element Set (TLE):
1 48729U 02032BN  25045.28317904  .00020312  00000-0  48836-2 0  9996
2 48729  98.4568 341.9581 0014378 346.1229  13.9569 14.53284128202941
Source of the keplerian elements: AFSPC